Houlton, ME

8:11 AM EST on February 19, 2017 (GMT -0500)
Houlton International

Weather History for KHUL - March, 2014

Change the Weather History Date:

Sunday, March 2, 2014

  Actual Average Record
Temperature  
Mean Temperature 9 °F 20 °F  
Max Temperature 25 °F 31 °F 52 °F (1991)
Min Temperature -8 °F 9 °F -31 °F (2001)
Degree Days  
Heating Degree Days 56 45  
Month to date heating degree days 116 90  
Since 1 July heating degree days 6706 6663  
Cooling Degree Days 0 0  
Month to date cooling degree days 0 0  
Year to date cooling degree days 0 0  
Moisture  
Dew Point 3 °F    
Average Humidity 57    
Maximum Humidity 75    
Minimum Humidity 39    
Precipitation  
Precipitation T in 0.08 in 0.69 in (1983)
Month to date precipitation T 0.16  
Year to date precipitation 5.58 5.02  
Sea Level Pressure  
Sea Level Pressure 29.98 in    
Wind  
Wind Speed 7 mph (NNW)    
Max Wind Speed 22 mph    
Max Gust Speed 29 mph    
Visibility 9 miles    
Events Snow    
T = Trace of Precipitation, MM = Missing Value Source: NWS Daily Summary

Daily Weather History Graph

Daily Weather History Graph

Search for Another Location

Airport or City:

Trip Planner

Search our weather history database for the weather conditions in past years. The results will help you decide how hot, cold, wet, or windy it might be!

Date:

Astronomy

Mar. 02, 2014 Rise Set
Actual Time 6:08 AM EST 5:18 PM EST
Civil Twilight 5:38 AM EST 5:48 PM EST
Nautical Twilight 5:03 AM EST 6:23 PM EST
Astronomical Twilight 4:29 AM EST 6:58 PM EST
Moon 6:30 AM EST (3/2) 7:19 PM EST (3/2)
Length of Visible Light 12h 10m
Length of Day
11h 10m
Waxing Crescent, 3% of the Moon is Illuminated
Mar 2
Waxing Crescent
Mar 8
First Quarter
Mar 16
Full
Mar 23
Last Quarter
Mar 30
New

Hourly Weather History & Observations

Time (EST) Temp. Windchill Dew Point Humidity Pressure Visibility Wind Dir Wind Speed Gust Speed Precip Events Conditions
12:53 AM 25.0 °F 16.3 °F 10.0 °F 53% 29.96 in 10.0 mi South 8.1 mph - N/A   Overcast
1:53 AM 25.0 °F 17.1 °F 10.9 °F 55% 29.94 in 10.0 mi SSW 6.9 mph - N/A   Overcast
2:53 AM 25.0 °F 17.1 °F 10.9 °F 55% 29.92 in 10.0 mi SSW 6.9 mph - N/A   Overcast
3:53 AM 24.1 °F 17.0 °F 10.9 °F 57% 29.92 in 10.0 mi SSW 5.8 mph - N/A   Overcast
4:53 AM 23.0 °F 15.8 °F 10.0 °F 58% 29.94 in 10.0 mi WSW 5.8 mph - N/A   Overcast
5:53 AM 21.0 °F - 8.1 °F 57% 29.95 in 10.0 mi Calm Calm - N/A   Scattered Clouds
6:53 AM 21.0 °F 13.4 °F 10.0 °F 63% 29.97 in 10.0 mi NW 5.8 mph - N/A   Overcast
7:40 AM 19.9 °F 4.3 °F 14.0 °F 78% 29.97 in 2.5 mi North 19.6 mph 28.8 mph 0.00 in Snow Light Snow
7:45 AM 18.0 °F 3.6 °F 12.9 °F 81% 29.97 in 1.2 mi NNW 15.0 mph 28.8 mph 0.00 in Snow Light Snow
7:53 AM 17.1 °F 3.0 °F 10.9 °F 77% 30.01 in 1.2 mi NNW 13.8 mph 25.3 mph 0.00 in Snow Light Snow
7:58 AM 17.1 °F 3.0 °F 10.0 °F 74% 29.98 in 2.0 mi North 13.8 mph 25.3 mph 0.00 in Snow Light Snow
8:07 AM 17.1 °F 1.5 °F 8.1 °F 68% 29.99 in 6.0 mi NNW 17.3 mph 24.2 mph 0.00 in   Haze
8:21 AM 16.0 °F 1.1 °F 7.0 °F 68% 30.00 in 9.0 mi North 15.0 mph - 0.00 in   Overcast
8:53 AM 17.1 °F 1.0 °F 5.0 °F 59% 30.02 in 10.0 mi North 18.4 mph - 0.00 in   Mostly Cloudy
9:53 AM 19.0 °F 8.2 °F 5.0 °F 54% 30.03 in 10.0 mi NNW 9.2 mph - N/A   Clear
10:53 AM 19.9 °F 7.9 °F 3.0 °F 48% 30.01 in 10.0 mi NW 11.5 mph - N/A   Scattered Clouds
11:53 AM 19.9 °F 9.3 °F 1.9 °F 46% 30.00 in 10.0 mi NW 9.2 mph - N/A   Partly Cloudy
12:53 PM 19.0 °F 5.6 °F 3.9 °F 52% 29.99 in 10.0 mi NNE 13.8 mph - N/A   Partly Cloudy
1:53 PM 19.0 °F 6.1 °F -0.0 °F 43% 29.96 in 10.0 mi North 12.7 mph - N/A   Clear
2:53 PM 19.9 °F 10.1 °F -2.0 °F 38% 29.95 in 10.0 mi NNE 8.1 mph - N/A   Clear
3:53 PM 19.0 °F 7.5 °F -2.0 °F 40% 29.96 in 10.0 mi NE 10.4 mph - N/A   Clear
4:53 PM 17.1 °F 5.8 °F -4.0 °F 39% 29.97 in 10.0 mi ENE 9.2 mph - N/A   Clear
5:53 PM 12.0 °F 4.1 °F -5.1 °F 46% 29.99 in 10.0 mi North 4.6 mph - N/A   Clear
6:53 PM 6.1 °F - -5.1 °F 60% 30.01 in 10.0 mi Calm Calm - N/A   Clear
7:53 PM 1.0 °F - -7.1 °F 69% 30.01 in 10.0 mi Calm Calm - N/A   Clear
8:53 PM -0.9 °F -8.9 °F -7.1 °F 75% 30.02 in 10.0 mi NNE 3.5 mph - N/A   Clear
9:53 PM -2.0 °F - -9.0 °F 72% 30.02 in 10.0 mi Calm Calm - N/A   Clear
10:53 PM -6.0 °F - -11.9 °F 75% 30.02 in 10.0 mi Calm Calm - N/A   Clear
11:53 PM -6.0 °F - -11.9 °F 75% 30.02 in 10.0 mi Calm Calm - N/A   Partly Cloudy